| time (UTC) | temp F | wind direction | speed MPH | gust MPH | rain 1hr in | rain 24hr in | rain mn in | humidity % | barometer mb |
| 20260504184543 | 67 | 285 | 3.0 | 10.0 | 0.00 | 0.00 | 0.00 | 35 | 1010.2 |
| 20260504183041 | 67 | 273 | 6.0 | 13.0 | 0.00 | 0.00 | 0.00 | 35 | 1010.6 |
| 20260504181543 | 67 | 252 | 3.0 | 9.0 | 0.00 | 0.00 | 0.00 | 36 | 1010.6 |
| 20260504180041 | 66 | 233 | 4.0 | 10.0 | 0.00 | 0.00 | 0.00 | 34 | 1010.8 |
| 20260504174535 | 65 | 200 | 3.0 | 12.0 | 0.00 | 0.00 | 0.00 | 34 | 1011.0 |
| 20260504173042 | 66 | 233 | 3.0 | 14.0 | 0.00 | 0.00 | 0.00 | 34 | 1011.0 |
| 20260504171542 | 66 | 265 | 3.0 | 10.0 | 0.00 | 0.00 | 0.00 | 39 | 1011.1 |
| 20260504081541 | 47 | 295 | 0.0 | 4.0 | 0.00 | 0.00 | 0.00 | 53 | 1012.1 |
| 20260504044539 | 44 | 0 | 0.0 | 1.0 | 0.00 | 0.00 | 0.00 | 52 | 1012.5 |
| 20260504043036 | 43 | 0 | 0.0 | 1.0 | 0.00 | 0.00 | 0.00 | 51 | 1012.5 |
| 20260504041534 | 43 | 0 | 0.0 | 1.0 | 0.00 | 0.00 | 0.00 | 50 | 1012.4 |
| 20260504040048 | 44 | 0 | 0.0 | 1.0 | 0.00 | 0.00 | 0.00 | 50 | 1012.3 |
| 20260504034543 | 44 | 0 | 0.0 | 1.0 | 0.00 | 0.00 | 0.00 | 48 | 1012.2 |
| 20260504033041 | 44 | 0 | 0.0 | 0.0 | 0.00 | 0.00 | 0.00 | 48 | 1012.2 |
| 20260504031544 | 45 | 0 | 0.0 | 1.0 | 0.00 | 0.00 | 0.00 | 47 | 1012.2 |
| 20260504030037 | 45 | 295 | 0.0 | 2.0 | 0.00 | 0.00 | 0.00 | 48 | 1012.1 |
| 20260504024535 | 45 | 0 | 0.0 | 1.0 | 0.00 | 0.00 | 0.00 | 47 | 1012.0 |
| 20260504023043 | 45 | 0 | 0.0 | 2.0 | 0.00 | 0.00 | 0.00 | 47 | 1012.0 |
| 20260504021543 | 45 | 0 | 0.0 | 1.0 | 0.00 | 0.00 | 0.00 | 47 | 1011.8 |
| 20260504020043 | 45 | 0 | 0.0 | 1.0 | 0.00 | 0.00 | 0.00 | 46 | 1011.9 |
| 20260504014536 | 46 | 295 | 0.0 | 1.0 | 0.00 | 0.00 | 0.00 | 46 | 1011.7 |
| 20260504013036 | 46 | 0 | 0.0 | 2.0 | 0.00 | 0.00 | 0.00 | 45 | 1011.7 |
| 20260504011544 | 46 | 295 | 0.0 | 1.0 | 0.00 | 0.00 | 0.00 | 46 | 1011.6 |
| 20260504010041 | 46 | 0 | 0.0 | 1.0 | 0.00 | 0.00 | 0.00 | 46 | 1011.3 |
| 20260504004546 | 46 | 295 | 0.0 | 1.0 | 0.00 | 0.00 | 0.00 | 46 | 1011.1 |
| 20260504003046 | 46 | 295 | 0.0 | 1.0 | 0.00 | 0.00 | 0.00 | 46 | 1011.0 |
| 20260504001541 | 47 | 0 | 0.0 | 2.0 | 0.00 | 0.00 | 0.00 | 45 | 1010.8 |
| 20260504000054 | 48 | 295 | 0.0 | 1.0 | 0.00 | 0.00 | 0.00 | 44 | 1010.5 |
| 20260503234551 | 48 | 295 | 0.0 | 2.0 | 0.00 | 0.00 | 0.00 | 43 | 1010.6 |
| 20260503233041 | 49 | 0 | 1.0 | 9.0 | 0.00 | 0.00 | 0.00 | 42 | 1010.4 |
| 20260503231541 | 49 | 293 | 2.0 | 9.0 | 0.00 | 0.00 | 0.00 | 41 | 1010.3 |
| 20260503230041 | 49 | 295 | 2.0 | 4.0 | 0.00 | 0.00 | 0.00 | 41 | 1010.1 |
| 20260503224536 | 49 | 295 | 2.0 | 10.0 | 0.00 | 0.00 | 0.00 | 42 | 1010.1 |
| 20260503223039 | 49 | 295 | 2.0 | 7.0 | 0.00 | 0.00 | 0.00 | 42 | 1010.0 |
| 20260503221550 | 49 | 295 | 1.0 | 9.0 | 0.00 | 0.00 | 0.00 | 42 | 1010.0 |
| 20260503220043 | 49 | 297 | 5.0 | 10.0 | 0.00 | 0.00 | 0.00 | 42 | 1009.9 |
| 20260503214543 | 49 | 295 | 4.0 | 11.0 | 0.00 | 0.00 | 0.00 | 42 | 1009.9 |
| 20260503213040 | 48 | 300 | 3.0 | 13.0 | 0.00 | 0.00 | 0.00 | 46 | 1009.9 |
| 20260503211540 | 49 | 295 | 4.0 | 11.0 | 0.00 | 0.00 | 0.00 | 44 | 1009.7 |
| 20260503210036 | 49 | 298 | 4.0 | 13.0 | 0.00 | 0.00 | 0.00 | 44 | 1009.5 |
| 20260503204533 | 48 | 297 | 3.0 | 11.0 | 0.00 | 0.00 | 0.00 | 44 | 1009.4 |
| 20260503203100 | 48 | 303 | 4.0 | 16.0 | 0.00 | 0.00 | 0.00 | 44 | 1009.5 |
| 20260503201542 | 48 | 298 | 5.0 | 13.0 | 0.00 | 0.00 | 0.00 | 45 | 1009.2 |
| 20260503200041 | 49 | 300 | 3.0 | 11.0 | 0.00 | 0.00 | 0.00 | 44 | 1009.1 |
| 20260503194542 | 48 | 302 | 4.0 | 12.0 | 0.00 | 0.00 | 0.00 | 43 | 1009.1 |
| 20260503193040 | 49 | 304 | 5.0 | 12.0 | 0.00 | 0.00 | 0.00 | 43 | 1009.0 |
| 20260503191533 | 48 | 304 | 3.0 | 12.0 | 0.00 | 0.00 | 0.00 | 44 | 1009.0 |
| 20260503190038 | 49 | 306 | 3.0 | 14.0 | 0.00 | 0.00 | 0.00 | 43 | 1009.1 |